Regional Weather Roundup
Issued by NWS Charleston, SC

Current Version | Previous Version | Graphics & Text | Print | Product List | Glossary On
Versions: 1 2 3 4 5 6 7 8 9 10 11 12 13 14 15 16 17 18 19 20 21 22 23 24 25 26 27 28 29 30 31 32 33 34 35 36 37 38 39 40 41 42 43 44 45 46 47 48 49 50
000
ASUS42 KCHS 290727
RWRCHS

REGIONAL WEATHER ROUNDUP
NATIONAL WEATHER SERVICE CHARLESTON SC
300 AM EDT WED JUL 29 2015

NOTE: "FAIR" INDICATES FEW OR NO CLOUDS BELOW 12,000 FEET WITH NO
SIGNIFICANT WEATHER AND/OR OBSTRUCTIONS TO VISIBILITY.

NOT ALL STATIONS ARE QUALITY CONTROLLED BY THE NATIONAL
WEATHER SERVICE. USE DATA WITH CAUTION...ESPECIALLY
DEWPOINT OBSERVATIONS.

SCZ027-030-031-034>040-042>050-290800-
...SOUTHEAST SOUTH CAROLINA...

CITY           SKY/WX    TMP DP  RH WIND       PRES   REMARKS
N CHARLESTON   PTCLDY    75  73  93 N5        29.95F
WATERFRONT PRK   N/A     81  76  85 NE5       29.92F
MOUNT PLEASANT LGT RAIN  75  73  94 CALM      29.95F
JOHNS ISLAND   FAIR      77  75  94 CALM      29.94F
PINOPOLIS      NOT AVBL
MONCKS CORNER  FAIR      75  72  88 CALM      29.97S
SUMMERVILLE    FAIR      73  73 100 CALM      29.96F
BEAUFORT MCAS  CLEAR     78  75  90 N3        29.95F
BEAUFORT ARPT  FAIR      77  77 100 CALM      29.93F
HILTON HEAD IS CLOUDY    79  75  89 NW3       29.95F
WALTERBORO     SUNNY     77  72  83 N3        29.96F
ALLENDALE      FAIR      75  73  94 CALM      29.95F

...SOUTHERN MIDLANDS AND PEE DEE...

CITY           SKY/WX    TMP DP  RH WIND       PRES   REMARKS
GEORGETOWN     NOT AVBL
KINGSTREE      NOT AVBL
ORANGEBURG     PTCLDY    77  72  84 CALM      29.97F
BARNWELL       FAIR      77  75  94 CALM      29.96F
AIKEN          FAIR      73  70  88 SE3       30.00F
MANNING        FAIR      72  70  94 CALM      29.97F
COLUMBIA       PTCLDY    78  73  84 SE3       29.96F
SUMTER         CLEAR     76  70  80 E5        29.96F
FLORENCE       CLEAR     76  71  85 CALM      29.98F
MYRTLE BEACH   PTCLDY    79  70  73 N3        29.98F
N MYRTLE BEACH PTCLDY    73  71  93 NE5       29.97S

$$

GAZ063-065-086>088-099>101-113>116-118-119-134>141-150-290800-
...SOUTHEAST GEORGIA...

CITY           SKY/WX    TMP DP  RH WIND       PRES   REMARKS
SAVANNAH ARPT  CLEAR     77  75  93 N3        29.95F
HUNTER AAF     CLEAR     78  78  99 CALM      29.92F
FORT STEWART   CLEAR     76  73  93 CALM      29.93F
STATESBORO     CLEAR     75  32  21 CALM      29.95F
SYLVANIA       SUNNY     77  77  98 CALM      29.95F
CLAXTON        PTSUNNY   73  73 100 CALM      29.95F

...CSRA...CENTRAL AND FAR SOUTHEAST GEORGIA...

CITY           SKY/WX    TMP DP  RH WIND       PRES   REMARKS
THOMSON        CLEAR     77  77 100 CALM      29.99F
AUGUSTA-BUSH   PTCLDY    77  74  90 E6        29.95F
AUGUSTA-DANIEL PTCLDY    81  73  76 SE6       29.97F
SWAINSBORO     FAIR     N/A N/A N/A CALM      29.96F
VIDALIA        CLEAR     77  73  88 CALM      29.95F
EASTMAN        FAIR      78  78 100 CALM      29.97F
HAZLEHURST     FAIR      78  73  86 CALM      29.94F
ALMA           CLEAR     74  72  93 CALM      29.95F
WAYCROSS       CLEAR     78  77  96 CALM      29.94F
JESUP          FAIR      79  77  94 CALM      29.95S
BAXLEY         FAIR      77  72  83 CALM      29.94F
BRUNSWICK        N/A     73  72  94 CALM      29.94F
SAINT SIMONS   PTCLDY    78  75  90 N3        29.93F

$$

SCZ027-028-034-036>038-045-046-048>050-GAZ119-141-290800-
...LAKE AND SUPPLEMENTAL COASTAL OBSERVATIONS...

STATION/POSITION TIME  TEMP    WIND        PRES    WAVE   SWELL
                       AIR SEA DIR/SP/G            HT/PER HT/PER/DIR
                 (UTC) (F)     (DEG/KT/KT) (MB)    (FT/S) (FT/S/D)
UPR LAKE MARION  NOT AVBL
WINYAH BAY       0600   78      50/  2     1014.0S
LAKE MURRAY      0600   80     160/  7/  9 1014.6F
ACE BASIN NERRS  NOT AVBL
FORT PULASKI     0700   81 86   20/  5/  6 1014.3F
SAPELO ISLAND    0600   78        CALM     1014.0S

$$

ANZ835-935-AMZ111-154-330-350-352-354-370-450-454-472-290800-
...C-MAN AND BUOY OBSERVATIONS...

STATION/POSITION TIME  TEMP    WIND        PRES    WAVE   SWELL
                       AIR SEA DIR/SP/G            HT/PER HT/PER/DIR
                 (UTC) (F)     (DEG/KT/KT) (MB)    (FT/S) (FT/S/D)
BUOY 41004       0650   83 84   60/  8/ 10 1013.3F   3/ 6   3/ 6
BUOY 41008       0650   81 82   50/  8/ 10 1013.7F   2/ 5   2/ 80/ 5
FOLLY BEACH CMAN 0700   81      70/  9/ 10 1014.0F
CAPERS NEARSHORE 0608   82      80/ 10/ 14 1014.5F
FRIPP NEARSHORE  0600   83      90/  8/ 12 1013.9F


STATION/POSITION TIME  TEMP    WIND        PRES    WAVE   SWELL
                       AIR SEA DIR/SP/G            HT/PER HT/PER/DIR
                 (UTC) (F)     (DEG/KT/KT) (MB)    (FT/S) (FT/S/D)
5E ST. MARYS GA  0621      82                N/A     2/11
FRYING PAN BUOY  0650   83 84   70/ 10/ 12 1014.6F   4/ 6   3/130/ 6
BUOY 41025       NOT AVBL
CAPE LOOKOUT NC  0700   80      80/ 12/ 13 1015.0F
BUOY 41002       0650   82 81  210/ 16/ 19 1013.7F   5/ 7   2/110/10
BUOY 41010       0620   83 84  240/ 14/ 16 1014.0F
ST AUGUSTINE FL  0700   78 81  290/  5/  6 1014.0F


$$



USA.gov is the U.S. government's official web portal to all federal, state and local government web resources and services.